Starlink 3808

operational
NORAD ID: 52366 Int'l Des: 2022-045 Owner: SPXS Country: US Constellation: starlink
LEOCIRCULAR

About Starlink 3808

Description loading...

Live Position

Loading 3D Globe...

Upcoming Passes

Altitude History

Altitude vs Time

uPlot chart will show altitude changes over time

Two-Line Element Set

1 52366U 22045AM 25260.49047159 .00003485 00000-0 23695-3 0 9997
2 52366 53.2137 246.6446 0001456 101.2425 258.8731 15.08842192189774
Epoch: Sep 17, 2025 • Age: 34 hours

Current Status

Altitude 544.9 km
Velocity 7.60 km/s
Sub-Earth Point 51.23°N, 12.3°W
Launch Date Apr 29, 2022
Age 3.3 years
Type internet

Technical Details

Classification Payload
Mass 297.00 kg
Dry Mass 275.00 kg
Total Mass 297.00 kg
Length 0.20 m
Diameter 2.80 m
Span 9.00 m
Shape Box + pan
Manufacturer SPXS
Bus Type Starlink
Phase Status In Orbit
Owner/State SPXS/US

Large Constellations

Loading constellations...